Flag for El Salvador Weather past 2 weeks in Santa Ana, El Salvador

Now
73 °F

Light rain. Passing clouds.


Feels Like: 70 °F
Forecast: 64 / 82 °F
Wind: 5 mph from North

Location: El Salvador Intl. Airport / Comalapa

Current Time: Sep 19, 2014 at 4:18:56 AM

Latest Report: Sep 19, 2014 at 3:50 AM


Visibility: N/A

Pressure: 29.89 "Hg

Humidity: 94%

Dew point: 72 °F

Location of Santa AnaLocation

Historic Weather in Santa Ana — Graph

°F

Santa Ana temperature yesterday

Maximum temperature yesterday: 88 °F (at 10:50 AM)
Minimum temperature yesterday: 70 °F (at 11:57 PM)
Average temperature yesterday: 81 °F

Past Weeks' High & Low Weather Summary

 TemperatureHumidityPressure
High91 °F (Sep 5, 1:50 PM)100% (Sep 4, 2:50 AM)29.98 "Hg (Sep 4, 2:50 AM)
Low70 °F (Sep 18, 11:57 PM)55% (Sep 8, 9:50 AM)29.71 "Hg (Sep 11, 4:50 PM)
Average80 °F87%29.85 "Hg
* Reported Sep 4 2:50 AM — Sep 19 2:50 AM, Santa Ana, Weather by CustomWeather, © 2014

Note: Actual official high and low records may vary slightly from our data, if they occured in-between our weather recording intervals... More about our weather records

Advertising

Santa Ana weather history for previous 24 hours

 ConditionsComfort  
Time TempWeatherWind HumidityBarometerVisibility
2:50 AM
Sep 19
73 °FRain. Passing clouds.7 mph94%29.89 "HgN/A
1:50 AM72 °FRain. Passing clouds.7 mph100%29.89 "HgN/A
12:50 AM70 °FThunderstorms. Passing clouds.6 mph100%29.95 "HgN/A
11:57 PM
Sep 18
70 °FStrong thunderstorms. Partly cloudy.5 mph100%29.98 "Hg2 mi
10:50 PM75 °FThunderstorms. Partly cloudy.7 mph94%29.92 "HgN/A
9:50 PM75 °FRain. Passing clouds.10 mph94%29.92 "HgN/A
8:50 PM79 °FPassing clouds.6 mph89%29.92 "HgN/A
7:50 PM81 °FPassing clouds.3 mph94%29.89 "HgN/A
6:50 PM81 °FPassing clouds.1 mph100%29.86 "HgN/A
5:50 PM84 °FPartly sunny.5 mph84%29.83 "HgN/A
4:50 PM86 °FScattered clouds.6 mph79%29.80 "HgN/A
3:50 PM86 °FScattered clouds.8 mph84%29.77 "HgN/A
2:50 PM88 °FPassing clouds.10 mph75%29.77 "HgN/A
1:50 PM88 °FPassing clouds.9 mph75%29.80 "HgN/A
12:50 PM86 °FScattered clouds.9 mph84%29.83 "HgN/A
11:50 AM88 °FScattered clouds.9 mph66%29.86 "HgN/A
10:50 AM88 °FPassing clouds.3 mph75%29.89 "HgN/A
9:50 AM86 °FPassing clouds.5 mph70%29.89 "HgN/A
8:50 AM82 °FThunderstorms. Passing clouds.1 mph79%29.92 "HgN/A
7:50 AM79 °FThunderstorms. Cloudy.1 mph89%29.92 "HgN/A
6:50 AM77 °FPassing clouds.2 mph94%29.92 "HgN/A
5:50 AM77 °FFog.5 mph94%29.89 "Hg2 mi
4:50 AM77 °FPassing clouds.5 mph94%29.89 "HgN/A
Weather by CustomWeather, © 2014

See weather overviewHow to use our weather pages